KF5CFW Weather Reports


time (UTC)temp
F
wind
direction
speed
knots
gust
knots
rain 1hr
in
rain 24hr
in
rain mn
in
humidity
%
barometer
mb
20260504041522 69 167 0.0 0.9 0.00 0.00 0.00 52 1015.0
20260504040002 70 153 0.0 0.9 0.00 0.00 0.00 50 1015.1
20260504034502 70 152 0.0 0.9 0.00 0.00 0.00 50 1014.9
20260504033100 70 146 0.0 2.6 0.00 0.00 0.00 50 1014.9
20260504031623 70 144 0.0 0.9 0.00 0.00 0.00 50 1015.0
20260504030059 71 158 0.0 0.9 0.00 0.00 0.00 50 1014.8
20260504024604 71 152 0.0 1.7 0.00 0.00 0.00 49 1014.8
20260504023059 72 131 0.0 1.7 0.00 0.00 0.00 47 1014.7
20260504021558 72 145 0.0 0.9 0.00 0.00 0.00 46 1014.6
20260504020110 73 155 0.0 0.9 0.00 0.00 0.00 43 1014.7
20260504014557 73 148 0.0 1.7 0.00 0.00 0.00 42 1014.6
20260504013057 74 158 0.0 3.5 0.00 0.00 0.00 41 1014.4
20260504011556 74 167 0.0 0.9 0.00 0.00 0.00 41 1014.3
20260504010056 75 242 0.0 0.9 0.00 0.00 0.00 39 1014.3
20260504004555 76 157 0.0 1.7 0.00 0.00 0.00 38 1014.4
20260504003054 76 154 0.0 1.7 0.00 0.00 0.00 38 1014.3
20260504001555 77 201 0.0 2.6 0.00 0.00 0.00 37 1014.5
20260504000052 78 217 0.0 1.7 0.00 0.00 0.00 36 1014.5
20260503234615 78 155 0.0 2.6 0.00 0.00 0.00 36 1014.5
20260503233051 79 156 0.0 1.7 0.00 0.00 0.00 36 1014.8
20260503231549 80 164 0.0 1.7 0.00 0.00 0.00 35 1014.7
20260503230047 81 148 0.0 3.5 0.00 0.00 0.00 33 1014.9
20260503224546 82 148 0.0 1.7 0.00 0.00 0.00 33 1014.9
20260503223046 84 211 0.0 0.9 0.00 0.00 0.00 31 1014.9
20260503221554 85 224 0.0 0.9 0.00 0.00 0.00 30 1015.2
20260503220042 86 156 0.0 4.3 0.00 0.00 0.00 30 1015.4
20260503214539 87 165 0.0 1.7 0.00 0.00 0.00 31 1015.5
20260503213042 87 250 0.0 1.7 0.00 0.00 0.00 30 1015.7
20260503211538 87 278 0.0 0.9 0.00 0.00 0.00 28 1016.0
20260503210034 87 222 0.0 1.7 0.00 0.00 0.00 29 1016.3
20260503204533 87 70 0.0 1.7 0.00 0.00 0.00 30 1016.5
20260503203038 87 156 0.0 1.7 0.00 0.00 0.00 29 1016.9
20260503201528 87 71 0.0 0.9 0.00 0.00 0.00 30 1017.0
20260503200028 87 329 0.0 0.9 0.00 0.00 0.00 29 1017.2
20260503194525 88 272 0.0 0.9 0.00 0.00 0.00 29 1017.6
20260503193022 87 151 0.0 0.9 0.00 0.00 0.00 32 1017.8
20260503191527 87 142 0.0 1.7 0.00 0.00 0.00 32 1018.0
20260503190018 86 248 0.0 1.7 0.00 0.00 0.00 30 1018.3
20260503184517 86 256 0.0 3.5 0.00 0.00 0.00 30 1018.5
20260503183014 86 248 0.0 1.7 0.00 0.00 0.00 32 1018.7
20260503181507 85 203 0.0 1.7 0.00 0.00 0.00 35 1019.0
20260503180006 84 259 0.0 1.7 0.00 0.00 0.00 35 1019.3
20260503174503 84 240 0.0 0.9 0.00 0.00 0.00 39 1019.6
20260503173111 83 229 0.0 0.9 0.00 0.00 0.00 41 1019.8
20260503171559 82 236 0.0 1.7 0.00 0.00 0.00 42 1020.1
20260503110106 56 224 0.0 0.0 0.00 0.00 0.00 48 1019.4
20260503081537 56 224 0.0 0.0 0.00 0.00 0.00 57 1019.1
20260503071529 58 224 0.0 0.0 0.00 0.00 0.00 62 1019.5
20260503054515 62 222 0.0 0.0 0.00 0.00 0.00 60 1019.5
20260503053013 62 222 0.0 0.0 0.00 0.00 0.00 60 1019.5
20260503051510 62 222 0.0 0.0 0.00 0.00 0.00 59 1019.3
20260503050020 63 222 0.0 0.0 0.00 0.00 0.00 59 1019.2
20260503044504 63 222 0.0 0.0 0.00 0.00 0.00 58 1019.2
20260503043105 63 222 0.0 0.0 0.00 0.00 0.00 57 1019.3
20260503043004 63 222 0.0 0.0 0.00 0.00 0.00 57 1019.2